Time,TemperatureF,DewpointF,PressureIn,WindDirection,WindDirectionDegrees,WindSpeedMPH,WindSpeedGustMPH,Humidity,HourlyPrecipIn,Conditions,Clouds,dailyrainin,SoftwareType,DateUTC
2013-01-03 00:03:00,19.4,-5.0,29.23,NE,49,7.6,7.6,33,0.00,,SKC,0.00,VWS V14.01,2013-01-03 06:03:00,
2013-01-03 00:08:00,19.6,-5.5,29.23,East,83,2.7,8.7,32,0.00,,SKC,0.00,VWS V14.01,2013-01-03 06:08:00,
2013-01-03 00:13:00,19.6,-5.5,29.23,SSE,148,5.4,8.7,32,0.00,,SKC,0.00,VWS V14.01,2013-01-03 06:13:00,
2013-01-03 00:18:00,19.8,-5.3,29.23,SE,135,4.9,8.7,32,0.00,,SKC,0.00,VWS V14.01,2013-01-03 06:18:00,
2013-01-03 00:23:00,19.9,-5.2,29.23,East,93,5.8,6.3,32,0.00,,SKC,0.00,VWS V14.01,2013-01-03 06:23:00,
2013-01-03 00:28:00,19.9,-5.2,29.23,East,85,7.2,8.3,32,0.00,,SKC,0.00,VWS V14.01,2013-01-03 06:28:00,
2013-01-03 00:33:00,20.1,-5.0,29.23,East,81,7.6,8.7,32,0.00,,SKC,0.00,VWS V14.01,2013-01-03 06:33:00,
2013-01-03 00:38:00,20.1,-5.0,29.23,East,99,6.3,8.7,32,0.00,,SKC,0.00,VWS V14.01,2013-01-03 06:38:00,
2013-01-03 00:43:00,20.3,-4.8,29.23,ESE,104,7.6,8.3,32,0.00,,SKC,0.00,VWS V14.01,2013-01-03 06:43:00,
2013-01-03 00:48:00,20.5,-4.7,29.23,East,88,6.3,6.3,32,0.00,,SKC,0.00,VWS V14.01,2013-01-03 06:48:00,
2013-01-03 00:53:00,20.7,-4.5,29.23,East,83,6.3,8.7,32,0.00,,SKC,0.00,VWS V14.01,2013-01-03 06:53:00,
2013-01-03 00:58:00,20.7,-4.5,29.23,East,94,7.6,10.5,32,0.00,,SKC,0.00,VWS V14.01,2013-01-03 06:58:00,
2013-01-03 01:03:00,20.8,-4.4,29.23,East,79,7.6,7.6,32,0.00,,SKC,0.00,VWS V14.01,2013-01-03 07:03:00,
2013-01-03 01:08:00,21.0,-4.2,29.23,SE,134,5.8,7.6,32,0.00,,SKC,0.00,VWS V14.01,2013-01-03 07:08:00,
2013-01-03 01:13:00,21.2,-4.0,29.23,SE,128,5.4,5.4,32,0.00,,SKC,0.00,VWS V14.01,2013-01-03 07:13:00,
2013-01-03 01:18:00,21.2,-3.4,29.23,East,79,4.0,6.3,33,0.00,,SKC,0.00,VWS V14.01,2013-01-03 07:18:00,
2013-01-03 01:23:00,21.4,-3.9,29.23,East,88,5.4,5.4,32,0.00,,SKC,0.00,VWS V14.01,2013-01-03 07:23:00,
2013-01-03 01:28:00,21.4,-3.9,29.23,East,85,3.6,6.3,32,0.00,,SKC,0.00,VWS V14.01,2013-01-03 07:28:00,
2013-01-03 01:33:00,21.6,-3.7,29.23,ENE,77,5.8,5.8,32,0.00,,SKC,0.00,VWS V14.01,2013-01-03 07:33:00,
2013-01-03 01:38:00,21.6,-3.7,29.23,ESE,106,3.6,4.0,32,0.00,,SKC,0.00,VWS V14.01,2013-01-03 07:38:00,
2013-01-03 01:43:00,21.7,-3.6,29.23,ESE,115,3.1,4.0,32,0.00,,SKC,0.00,VWS V14.01,2013-01-03 07:43:00,
2013-01-03 01:48:00,21.7,-3.6,29.23,ESE,109,4.9,5.4,32,0.00,,SKC,0.00,VWS V14.01,2013-01-03 07:48:00,
2013-01-03 01:53:00,21.7,-2.9,29.23,ENE,75,4.9,4.9,33,0.00,,SKC,0.00,VWS V14.01,2013-01-03 07:53:00,
2013-01-03 01:58:00,21.9,-2.8,29.23,East,88,5.4,5.4,33,0.00,,SKC,0.00,VWS V14.01,2013-01-03 07:58:00,
2013-01-03 02:03:00,21.9,-2.8,29.23,ESE,118,5.4,5.4,33,0.00,,SKC,0.00,VWS V14.01,2013-01-03 08:03:00,
2013-01-03 02:08:00,21.9,-2.8,29.23,ENE,76,4.0,5.4,33,0.00,,SKC,0.00,VWS V14.01,2013-01-03 08:08:00,
2013-01-03 02:13:00,22.1,-2.6,29.23,East,87,4.0,4.0,33,0.00,,SKC,0.00,VWS V14.01,2013-01-03 08:13:00,
2013-01-03 02:18:00,22.1,-2.6,29.23,ESE,113,2.7,6.3,33,0.00,,SKC,0.00,VWS V14.01,2013-01-03 08:18:00,
2013-01-03 02:23:00,22.3,-2.4,29.23,East,91,2.7,2.7,33,0.00,,SKC,0.00,VWS V14.01,2013-01-03 08:23:00,
2013-01-03 02:28:00,22.3,-2.4,29.23,ESE,120,4.9,4.9,33,0.00,,SKC,0.00,VWS V14.01,2013-01-03 08:28:00,
2013-01-03 02:33:00,22.3,-2.4,29.23,ENE,76,2.7,3.6,33,0.00,,SKC,0.00,VWS V14.01,2013-01-03 08:33:00,
2013-01-03 02:38:00,22.5,-2.3,29.23,ESE,115,3.6,4.0,33,0.00,,SKC,0.00,VWS V14.01,2013-01-03 08:38:00,
2013-01-03 02:43:00,22.5,-2.3,29.23,East,100,4.9,4.9,33,0.00,,SKC,0.00,VWS V14.01,2013-01-03 08:43:00,
2013-01-03 02:48:00,22.6,-2.1,29.23,ENE,78,3.6,3.6,33,0.00,,SKC,0.00,VWS V14.01,2013-01-03 08:48:00,
2013-01-03 02:53:00,22.6,-1.5,29.23,ESE,104,4.0,5.4,34,0.00,,SKC,0.00,VWS V14.01,2013-01-03 08:53:00,
2013-01-03 02:58:00,22.6,-1.5,29.23,East,84,3.6,4.0,34,0.00,,SKC,0.00,VWS V14.01,2013-01-03 08:58:00,
2013-01-03 03:03:00,22.6,-1.5,29.23,East,91,5.4,5.4,34,0.00,,SKC,0.00,VWS V14.01,2013-01-03 09:03:00,
2013-01-03 03:08:00,22.8,-1.3,29.23,East,81,4.0,4.5,34,0.00,,SKC,0.00,VWS V14.01,2013-01-03 09:08:00,
2013-01-03 03:13:00,22.8,-1.3,29.23,ESE,110,4.0,6.3,34,0.00,,SKC,0.00,VWS V14.01,2013-01-03 09:13:00,
2013-01-03 03:18:00,22.8,-0.7,29.23,ENE,77,4.0,4.0,35,0.00,,SKC,0.00,VWS V14.01,2013-01-03 09:18:00,
2013-01-03 03:23:00,22.8,-0.7,29.23,SE,135,2.7,5.4,35,0.00,,SKC,0.00,VWS V14.01,2013-01-03 09:23:00,
2013-01-03 03:28:00,22.8,-0.1,29.23,East,100,3.6,5.4,36,0.00,,SKC,0.00,VWS V14.01,2013-01-03 09:28:00,
2013-01-03 03:33:00,23.0,0.0,29.23,ESE,108,4.0,6.3,36,0.00,,SKC,0.00,VWS V14.01,2013-01-03 09:33:00,
2013-01-03 03:38:00,23.0,0.0,29.23,ESE,116,4.9,4.9,36,0.00,,SKC,0.00,VWS V14.01,2013-01-03 09:38:00,
2013-01-03 03:43:00,23.0,0.0,29.21,East,92,5.4,5.4,36,0.00,,SKC,0.00,VWS V14.01,2013-01-03 09:43:00,
2013-01-03 03:48:00,23.2,0.2,29.21,ESE,122,4.9,4.9,36,0.00,,SKC,0.00,VWS V14.01,2013-01-03 09:48:00,
2013-01-03 03:53:00,23.2,0.2,29.21,SE,135,5.4,6.3,36,0.00,,SKC,0.00,VWS V14.01,2013-01-03 09:53:00,
2013-01-03 03:58:00,23.4,0.4,29.23,East,95,5.4,7.6,36,0.00,,SKC,0.00,VWS V14.01,2013-01-03 09:58:00,
2013-01-03 04:03:00,23.5,0.5,29.23,SE,137,3.6,4.0,36,0.00,,SKC,0.00,VWS V14.01,2013-01-03 10:03:00,
2013-01-03 04:08:00,23.5,1.1,29.23,SE,146,4.0,4.9,37,0.00,,SKC,0.00,VWS V14.01,2013-01-03 10:08:00,
2013-01-03 04:13:00,23.7,1.3,29.23,SE,127,4.0,5.8,37,0.00,,SKC,0.00,VWS V14.01,2013-01-03 10:13:00,
2013-01-03 04:18:00,23.5,1.1,29.23,SE,133,4.0,5.8,37,0.00,,SKC,0.00,VWS V14.01,2013-01-03 10:18:00,
2013-01-03 04:23:00,23.7,1.3,29.23,East,87,4.9,4.9,37,0.00,,SKC,0.00,VWS V14.01,2013-01-03 10:23:00,
2013-01-03 04:28:00,23.7,1.3,29.23,SE,133,3.1,3.1,37,0.00,,SKC,0.00,VWS V14.01,2013-01-03 10:28:00,
2013-01-03 04:33:00,23.9,2.0,29.23,East,79,3.6,7.6,38,0.00,,SKC,0.00,VWS V14.01,2013-01-03 10:33:00,
2013-01-03 04:38:00,23.9,2.0,29.23,South,177,6.3,6.3,38,0.00,,SKC,0.00,VWS V14.01,2013-01-03 10:38:00,
2013-01-03 04:43:00,23.9,2.0,29.23,East,84,4.0,4.9,38,0.00,,SKC,0.00,VWS V14.01,2013-01-03 10:43:00,
2013-01-03 04:48:00,23.9,2.6,29.23,East,84,4.0,5.8,39,0.00,,SKC,0.00,VWS V14.01,2013-01-03 10:48:00,
2013-01-03 04:53:00,24.1,2.7,29.23,East,88,5.4,5.4,39,0.00,,SKC,0.00,VWS V14.01,2013-01-03 10:53:00,
2013-01-03 04:58:00,24.1,2.7,29.23,ESE,106,4.0,6.3,39,0.00,,SKC,0.00,VWS V14.01,2013-01-03 10:58:00,
2013-01-03 05:03:00,24.1,2.7,29.23,ENE,72,5.4,5.8,39,0.00,,SKC,0.00,VWS V14.01,2013-01-03 11:03:00,
2013-01-03 05:08:00,23.9,2.6,29.23,East,82,4.0,8.3,39,0.00,,SKC,0.00,VWS V14.01,2013-01-03 11:08:00,
2013-01-03 05:13:00,23.9,3.1,29.23,East,97,6.3,6.3,40,0.00,,SKC,0.00,VWS V14.01,2013-01-03 11:13:00,
2013-01-03 05:18:00,23.9,3.1,29.23,East,90,4.5,5.8,40,0.00,,SKC,0.00,VWS V14.01,2013-01-03 11:18:00,
2013-01-03 05:23:00,23.9,3.6,29.23,East,101,5.4,5.4,41,0.00,,SKC,0.00,VWS V14.01,2013-01-03 11:23:00,
2013-01-03 05:28:00,23.9,4.2,29.21,ENE,67,6.3,6.3,42,0.00,,SKC,0.00,VWS V14.01,2013-01-03 11:28:00,
2013-01-03 05:33:00,23.7,4.0,29.21,SE,124,7.6,7.6,42,0.00,,SKC,0.00,VWS V14.01,2013-01-03 11:33:00,
2013-01-03 05:38:00,23.5,3.8,29.21,East,99,4.9,5.8,42,0.00,,SKC,0.00,VWS V14.01,2013-01-03 11:38:00,
2013-01-03 05:43:00,23.5,3.8,29.23,ESE,103,3.6,4.0,42,0.00,,SKC,0.00,VWS V14.01,2013-01-03 11:43:00,
2013-01-03 05:48:00,23.5,3.8,29.23,SE,124,6.3,6.3,42,0.00,,SKC,0.00,VWS V14.01,2013-01-03 11:48:00,
2013-01-03 05:53:00,23.7,4.0,29.23,ESE,120,5.4,5.4,42,0.00,,SKC,0.00,VWS V14.01,2013-01-03 11:53:00,
2013-01-03 05:58:00,23.7,4.0,29.23,ESE,111,4.0,4.9,42,0.00,,SKC,0.00,VWS V14.01,2013-01-03 11:58:00,
2013-01-03 06:03:00,23.7,4.0,29.23,ESE,102,4.0,5.8,42,0.00,,SKC,0.00,VWS V14.01,2013-01-03 12:03:00,
2013-01-03 06:08:00,23.9,4.2,29.23,ESE,104,3.6,4.0,42,0.00,,SKC,0.00,VWS V14.01,2013-01-03 12:08:00,
2013-01-03 06:13:00,23.9,4.2,29.23,SSE,149,5.4,5.8,42,0.00,,SKC,0.00,VWS V14.01,2013-01-03 12:13:00,
2013-01-03 06:18:00,24.1,4.3,29.23,East,98,4.9,4.9,42,0.00,,SKC,0.00,VWS V14.01,2013-01-03 12:18:00,
2013-01-03 06:23:00,24.1,4.3,29.23,East,93,4.0,4.9,42,0.00,,SKC,0.00,VWS V14.01,2013-01-03 12:23:00,
2013-01-03 06:28:00,24.1,4.3,29.23,East,92,4.0,4.0,42,0.00,,SKC,0.00,VWS V14.01,2013-01-03 12:28:00,
2013-01-03 06:33:00,24.3,5.0,29.23,East,95,5.4,5.4,43,0.00,,SKC,0.00,VWS V14.01,2013-01-03 12:33:00,
2013-01-03 06:38:00,24.3,5.0,29.23,East,97,2.7,4.0,43,0.00,,SKC,0.00,VWS V14.01,2013-01-03 12:38:00,
2013-01-03 06:43:00,24.4,5.2,29.23,ESE,102,4.0,4.5,43,0.00,,SKC,0.00,VWS V14.01,2013-01-03 12:43:00,
2013-01-03 06:48:00,24.4,5.2,29.23,East,98,3.1,4.0,43,0.00,,SKC,0.00,VWS V14.01,2013-01-03 12:48:00,
2013-01-03 06:53:00,24.4,5.2,29.23,East,99,2.2,3.1,43,0.00,,SKC,0.00,VWS V14.01,2013-01-03 12:53:00,
2013-01-03 06:58:00,24.8,6.0,29.23,SE,145,2.7,4.0,44,0.00,,SKC,0.00,VWS V14.01,2013-01-03 12:58:00,
2013-01-03 07:03:00,25.0,6.2,29.23,SSE,160,5.4,5.4,44,0.00,,SKC,0.00,VWS V14.01,2013-01-03 13:03:00,
2013-01-03 07:08:00,25.3,7.0,29.23,SSE,163,5.4,5.4,45,0.00,,SKC,0.00,VWS V14.01,2013-01-03 13:08:00,
2013-01-03 07:13:00,25.7,7.3,29.23,SSE,168,4.0,6.3,45,0.00,,SKC,0.00,VWS V14.01,2013-01-03 13:13:00,
2013-01-03 07:18:00,25.9,7.5,29.23,SSE,158,5.4,5.8,45,0.00,,SKC,0.00,VWS V14.01,2013-01-03 13:18:00,
2013-01-03 07:23:00,26.1,7.6,29.23,SE,144,3.6,7.6,45,0.00,,SKC,0.00,VWS V14.01,2013-01-03 13:23:00,
2013-01-03 07:28:00,26.2,7.8,29.23,SSE,162,5.4,6.3,45,0.00,,SKC,0.00,VWS V14.01,2013-01-03 13:28:00,
2013-01-03 07:33:00,26.2,7.8,29.23,SSE,159,5.8,5.8,45,0.00,,SKC,0.00,VWS V14.01,2013-01-03 13:33:00,
2013-01-03 07:38:00,26.4,8.0,29.23,SE,146,5.4,8.1,45,0.00,,SKC,0.00,VWS V14.01,2013-01-03 13:38:00,
2013-01-03 07:43:00,26.6,8.1,29.23,South,172,4.0,5.8,45,0.00,,SKC,0.00,VWS V14.01,2013-01-03 13:43:00,
2013-01-03 07:48:00,26.8,8.3,29.23,South,170,6.3,8.7,45,0.00,,SKC,0.00,VWS V14.01,2013-01-03 13:48:00,
2013-01-03 07:53:00,27.0,8.9,29.23,ESE,115,6.3,6.3,46,0.00,,SKC,0.00,VWS V14.01,2013-01-03 13:53:00,
2013-01-03 07:58:00,27.1,9.1,29.23,South,187,5.4,8.7,46,0.00,,SKC,0.00,VWS V14.01,2013-01-03 13:58:00,
2013-01-03 08:03:00,27.5,9.4,29.23,SSE,159,2.7,4.0,46,0.00,,SKC,0.00,VWS V14.01,2013-01-03 14:03:00,
2013-01-03 08:08:00,27.7,9.6,29.23,SSW,196,7.6,7.6,46,0.00,,SKC,0.00,VWS V14.01,2013-01-03 14:08:00,
2013-01-03 08:13:00,27.9,10.3,29.26,SSW,211,7.2,10.1,47,0.00,,SKC,0.00,VWS V14.01,2013-01-03 14:13:00,
2013-01-03 08:18:00,28.0,10.9,29.26,SE,130,7.6,7.6,48,0.00,,SKC,0.00,VWS V14.01,2013-01-03 14:18:00,
2013-01-03 08:23:00,28.2,11.5,29.26,South,178,5.8,10.1,49,0.00,,SKC,0.00,VWS V14.01,2013-01-03 14:23:00,
2013-01-03 08:28:00,28.4,12.1,29.23,SSE,166,6.3,6.3,50,0.00,,SKC,0.00,VWS V14.01,2013-01-03 14:28:00,
2013-01-03 08:33:00,28.6,12.3,29.23,SSW,211,8.3,8.3,50,0.00,,SKC,0.00,VWS V14.01,2013-01-03 14:33:00,
2013-01-03 08:38:00,28.8,12.5,29.23,SSW,203,7.6,9.6,50,0.00,,SKC,0.00,VWS V14.01,2013-01-03 14:38:00,
2013-01-03 08:43:00,28.9,12.6,29.26,South,170,5.4,8.1,50,0.00,,SKC,0.00,VWS V14.01,2013-01-03 14:43:00,
2013-01-03 08:48:00,29.1,12.8,29.26,SW,226,5.8,8.7,50,0.00,,SKC,0.00,VWS V14.01,2013-01-03 14:48:00,
2013-01-03 08:53:00,29.3,13.4,29.26,SSW,197,4.9,6.3,51,0.00,,SKC,0.00,VWS V14.01,2013-01-03 14:53:00,
2013-01-03 08:58:00,29.5,14.0,29.26,SSW,207,5.4,8.1,52,0.00,,SKC,0.00,VWS V14.01,2013-01-03 14:58:00,
2013-01-03 09:03:00,29.7,13.8,29.26,South,186,10.5,11.0,51,0.00,,SKC,0.00,VWS V14.01,2013-01-03 15:03:00,
2013-01-03 09:08:00,30.0,14.5,29.26,SW,229,6.3,8.7,52,0.00,,SKC,0.00,VWS V14.01,2013-01-03 15:08:00,
2013-01-03 09:13:00,30.2,15.1,29.26,SW,216,8.1,9.6,53,0.00,,SKC,0.00,VWS V14.01,2013-01-03 15:13:00,
2013-01-03 09:18:00,30.6,15.0,29.26,SW,216,7.6,9.6,52,0.00,,SKC,0.00,VWS V14.01,2013-01-03 15:18:00,
2013-01-03 09:23:00,30.9,14.9,29.26,SW,228,10.1,10.1,51,0.00,,SKC,0.00,VWS V14.01,2013-01-03 15:23:00,
2013-01-03 09:28:00,31.1,14.6,29.26,SW,222,8.3,8.3,50,0.00,,SKC,0.00,VWS V14.01,2013-01-03 15:28:00,
2013-01-03 09:33:00,31.3,14.8,29.26,SSW,206,5.8,8.1,50,0.00,,SKC,0.00,VWS V14.01,2013-01-03 15:33:00,
2013-01-03 09:38:00,31.5,14.5,29.26,SW,229,12.3,12.3,49,0.00,,SKC,0.00,VWS V14.01,2013-01-03 15:38:00,
2013-01-03 09:43:00,31.5,12.6,29.29,SW,216,11.0,11.0,45,0.00,,SKC,0.00,VWS V14.01,2013-01-03 15:43:00,
2013-01-03 09:48:00,31.6,11.2,29.29,SSW,195,7.6,7.6,42,0.00,,SKC,0.00,VWS V14.01,2013-01-03 15:48:00,
2013-01-03 09:53:00,32.0,11.5,29.29,South,191,9.2,10.1,42,0.00,,SKC,0.00,VWS V14.01,2013-01-03 15:53:00,
2013-01-03 09:58:00,32.2,11.7,29.29,SSW,207,5.8,8.1,42,0.00,,SKC,0.00,VWS V14.01,2013-01-03 15:58:00,
2013-01-03 10:03:00,32.4,11.3,29.29,SW,218,7.2,7.6,41,0.00,,SKC,0.00,VWS V14.01,2013-01-03 16:03:00,
2013-01-03 10:08:00,32.4,10.8,29.29,SW,234,7.6,8.3,40,0.00,,SKC,0.00,VWS V14.01,2013-01-03 16:08:00,
2013-01-03 10:13:00,32.5,11.5,29.29,SSW,211,8.1,8.3,41,0.00,,SKC,0.00,VWS V14.01,2013-01-03 16:13:00,
2013-01-03 10:18:00,32.7,11.6,29.29,SSW,200,8.7,10.5,41,0.00,,SKC,0.00,VWS V14.01,2013-01-03 16:18:00,
2013-01-03 10:23:00,32.7,11.6,29.29,SW,228,8.3,10.1,41,0.00,,SKC,0.00,VWS V14.01,2013-01-03 16:23:00,
2013-01-03 10:28:00,32.7,11.6,29.29,SSW,199,8.7,8.7,41,0.00,,SKC,0.00,VWS V14.01,2013-01-03 16:28:00,
2013-01-03 10:33:00,32.7,11.6,29.29,SW,218,11.0,12.8,41,0.00,,SKC,0.00,VWS V14.01,2013-01-03 16:33:00,
2013-01-03 10:38:00,32.7,12.2,29.29,SW,226,9.2,12.3,42,0.00,,SKC,0.00,VWS V14.01,2013-01-03 16:38:00,
2013-01-03 10:43:00,32.7,11.6,29.29,SW,223,11.9,13.2,41,0.00,,SKC,0.00,VWS V14.01,2013-01-03 16:43:00,
2013-01-03 10:48:00,32.7,11.6,29.29,SW,232,10.5,10.5,41,0.00,,SKC,0.00,VWS V14.01,2013-01-03 16:48:00,
2013-01-03 10:53:00,32.7,11.6,29.29,SW,232,12.3,13.2,41,0.00,,SKC,0.00,VWS V14.01,2013-01-03 16:53:00,
2013-01-03 10:58:00,32.7,12.2,29.29,SW,228,8.7,11.0,42,0.00,,SKC,0.00,VWS V14.01,2013-01-03 16:58:00,
2013-01-03 11:03:00,32.5,11.5,29.29,SW,235,11.0,11.0,41,0.00,,SKC,0.00,VWS V14.01,2013-01-03 17:03:00,
2013-01-03 11:08:00,32.5,10.9,29.29,SW,227,8.1,8.7,40,0.00,,SKC,0.00,VWS V14.01,2013-01-03 17:08:00,
2013-01-03 11:13:00,32.5,11.5,29.26,SSW,208,9.2,11.0,41,0.00,,SKC,0.00,VWS V14.01,2013-01-03 17:13:00,
2013-01-03 11:18:00,32.5,11.5,29.26,SW,225,10.1,10.1,41,0.00,,SKC,0.00,VWS V14.01,2013-01-03 17:18:00,
2013-01-03 11:23:00,32.5,10.9,29.26,SW,218,10.5,10.5,40,0.00,,SKC,0.00,VWS V14.01,2013-01-03 17:23:00,
2013-01-03 11:28:00,32.5,10.9,29.26,SW,229,10.5,10.5,40,0.00,,SKC,0.00,VWS V14.01,2013-01-03 17:28:00,
2013-01-03 11:33:00,32.5,10.9,29.26,SW,214,11.0,11.0,40,0.00,,SKC,0.00,VWS V14.01,2013-01-03 17:33:00,
2013-01-03 11:38:00,32.5,10.9,29.26,SW,222,8.3,11.0,40,0.00,,SKC,0.00,VWS V14.01,2013-01-03 17:38:00,
2013-01-03 11:43:00,32.4,10.8,29.26,SSW,195,6.3,8.3,40,0.00,,SKC,0.00,VWS V14.01,2013-01-03 17:43:00,
2013-01-03 11:48:00,32.5,10.9,29.26,SW,219,8.3,10.1,40,0.00,,SKC,0.00,VWS V14.01,2013-01-03 17:48:00,
2013-01-03 11:53:00,32.4,10.8,29.26,SW,214,10.5,10.5,40,0.00,,SKC,0.00,VWS V14.01,2013-01-03 17:53:00,
2013-01-03 11:58:00,32.4,9.6,29.26,SW,217,8.7,8.7,38,0.00,,SKC,0.00,VWS V14.01,2013-01-03 17:58:00,
2013-01-03 12:03:00,32.2,9.4,29.26,SW,225,8.7,8.7,38,0.00,,SKC,0.00,VWS V14.01,2013-01-03 18:03:00,
2013-01-03 12:08:00,32.2,9.4,29.26,SSW,204,5.4,7.6,38,0.00,,SKC,0.00,VWS V14.01,2013-01-03 18:08:00,
2013-01-03 12:13:00,32.2,8.9,29.26,SSW,211,8.1,8.1,37,0.00,,SKC,0.00,VWS V14.01,2013-01-03 18:13:00,
2013-01-03 12:18:00,32.2,10.6,29.26,WSW,240,11.9,11.9,40,0.00,,SKC,0.00,VWS V14.01,2013-01-03 18:18:00,
2013-01-03 12:23:00,32.2,10.0,29.26,SW,231,13.2,13.2,39,0.00,,SKC,0.00,VWS V14.01,2013-01-03 18:23:00,
2013-01-03 12:28:00,32.2,10.6,29.26,SW,226,12.3,15.4,40,0.00,,SKC,0.00,VWS V14.01,2013-01-03 18:28:00,
2013-01-03 12:33:00,32.2,8.9,29.26,SW,227,12.3,12.8,37,0.00,,SKC,0.00,VWS V14.01,2013-01-03 18:33:00,
2013-01-03 12:38:00,32.2,10.0,29.26,SW,229,10.5,11.4,39,0.00,,SKC,0.00,VWS V14.01,2013-01-03 18:38:00,
2013-01-03 12:43:00,32.2,8.2,29.26,SW,229,9.6,9.6,36,0.00,,SKC,0.00,VWS V14.01,2013-01-03 18:43:00,
2013-01-03 12:48:00,32.2,8.2,29.26,SW,234,8.1,8.7,36,0.00,,SKC,0.00,VWS V14.01,2013-01-03 18:48:00,
2013-01-03 12:53:00,32.2,9.4,29.26,SW,220,8.1,8.1,38,0.00,,SKC,0.00,VWS V14.01,2013-01-03 18:53:00,
2013-01-03 12:58:00,32.2,8.9,29.26,SW,230,8.7,10.1,37,0.00,,SKC,0.00,VWS V14.01,2013-01-03 18:58:00,
2013-01-03 13:03:00,32.2,8.9,29.26,SW,227,8.1,8.7,37,0.00,,SKC,0.00,VWS V14.01,2013-01-03 19:03:00,
2013-01-03 13:08:00,32.2,11.1,29.26,SW,219,10.1,10.1,41,0.00,,SKC,0.00,VWS V14.01,2013-01-03 19:08:00,
2013-01-03 13:13:00,32.0,11.5,29.29,SSW,206,8.3,8.3,42,0.00,,SKC,0.00,VWS V14.01,2013-01-03 19:13:00,
2013-01-03 13:18:00,31.6,11.2,29.29,SW,214,8.1,8.1,42,0.00,,SKC,0.00,VWS V14.01,2013-01-03 19:18:00,
2013-01-03 13:55:00,31.6,11.2,29.29,SW,222,11.0,11.0,42,0.00,,SKC,0.00,VWS V14.01,2013-01-03 19:55:00,
2013-01-03 14:00:00,31.5,11.0,29.29,SW,218,10.1,11.0,42,0.00,,SKC,0.00,VWS V14.01,2013-01-03 20:00:00,
2013-01-03 14:05:00,31.5,11.0,29.29,SW,230,8.1,10.5,42,0.00,,SKC,0.00,VWS V14.01,2013-01-03 20:05:00,
2013-01-03 14:10:00,31.6,11.2,29.29,SW,218,8.1,8.3,42,0.00,,SKC,0.00,VWS V14.01,2013-01-03 20:10:00,
2013-01-03 14:15:00,34.2,17.5,29.29,SW,234,8.7,10.1,50,0.00,,SKC,0.00,VWS V14.01,2013-01-03 20:15:00,
2013-01-03 14:20:00,33.3,9.2,29.29,SW,223,10.1,10.1,36,0.00,,SKC,0.00,VWS V14.01,2013-01-03 20:20:00,
2013-01-03 14:25:00,32.2,9.4,29.29,SSW,207,8.3,8.3,38,0.00,,SKC,0.00,VWS V14.01,2013-01-03 20:25:00,
2013-01-03 14:30:00,31.8,10.3,29.29,SW,219,6.3,6.3,40,0.00,,SKC,0.00,VWS V14.01,2013-01-03 20:30:00,
2013-01-03 14:35:00,31.5,9.9,29.29,SW,218,8.3,8.3,40,0.00,,SKC,0.00,VWS V14.01,2013-01-03 20:35:00,
2013-01-03 14:40:00,31.3,9.8,29.29,SSW,192,5.8,8.1,40,0.00,,SKC,0.00,VWS V14.01,2013-01-03 20:40:00,
2013-01-03 14:45:00,30.9,9.4,29.29,SSW,211,4.9,4.9,40,0.00,,SKC,0.00,VWS V14.01,2013-01-03 20:45:00,
2013-01-03 14:50:00,30.9,9.4,29.29,SSW,197,7.6,9.6,40,0.00,,SKC,0.00,VWS V14.01,2013-01-03 20:50:00,
2013-01-03 14:55:00,30.7,9.3,29.29,SSW,205,5.8,5.8,40,0.00,,SKC,0.00,VWS V14.01,2013-01-03 20:55:00,
2013-01-03 15:00:00,30.7,9.8,29.29,SSW,199,8.7,8.7,41,0.00,,SKC,0.00,VWS V14.01,2013-01-03 21:00:00,
2013-01-03 15:05:00,30.7,8.7,29.29,SW,214,7.6,7.6,39,0.00,,SKC,0.00,VWS V14.01,2013-01-03 21:05:00,
2013-01-03 15:10:00,30.7,8.1,29.29,SSW,203,10.1,10.1,38,0.00,,SKC,0.00,VWS V14.01,2013-01-03 21:10:00,
2013-01-03 15:15:00,30.7,7.6,29.32,SSW,207,6.3,6.3,37,0.00,,SKC,0.00,VWS V14.01,2013-01-03 21:15:00,
2013-01-03 15:20:00,30.9,6.5,29.32,SW,215,7.2,7.2,35,0.00,,SKC,0.00,VWS V14.01,2013-01-03 21:20:00,
2013-01-03 15:25:00,31.1,6.7,29.32,SSW,198,8.1,8.1,35,0.00,,SKC,0.00,VWS V14.01,2013-01-03 21:25:00,
2013-01-03 15:30:00,31.1,7.3,29.32,SW,223,8.3,8.7,36,0.00,,SKC,0.00,VWS V14.01,2013-01-03 21:30:00,
2013-01-03 15:35:00,31.1,7.3,29.32,SSW,212,5.8,7.6,36,0.00,,SKC,0.00,VWS V14.01,2013-01-03 21:35:00,
2013-01-03 15:40:00,31.1,6.0,29.32,SSW,204,5.4,5.8,34,0.00,,SKC,0.00,VWS V14.01,2013-01-03 21:40:00,
2013-01-03 15:45:00,31.1,6.0,29.32,SW,217,7.6,7.6,34,0.00,,SKC,0.00,VWS V14.01,2013-01-03 21:45:00,
2013-01-03 15:50:00,31.1,6.0,29.32,WSW,237,8.1,8.7,34,0.00,,SKC,0.00,VWS V14.01,2013-01-03 21:50:00,
2013-01-03 15:55:00,31.1,5.4,29.32,SW,219,8.7,9.2,33,0.00,,SKC,0.00,VWS V14.01,2013-01-03 21:55:00,
2013-01-03 16:00:00,31.1,5.4,29.29,SSW,207,6.3,10.1,33,0.00,,SKC,0.00,VWS V14.01,2013-01-03 22:00:00,
2013-01-03 16:05:00,31.1,6.0,29.29,SSW,197,5.4,7.6,34,0.00,,SKC,0.00,VWS V14.01,2013-01-03 22:05:00,
2013-01-03 16:10:00,30.9,5.9,29.29,SSW,202,6.3,8.7,34,0.00,,SKC,0.00,VWS V14.01,2013-01-03 22:10:00,
2013-01-03 16:15:00,31.1,6.7,29.32,SW,218,6.3,8.1,35,0.00,,SKC,0.00,VWS V14.01,2013-01-03 22:15:00,
2013-01-03 16:20:00,31.1,6.7,29.32,SW,222,8.1,8.7,35,0.00,,SKC,0.00,VWS V14.01,2013-01-03 22:20:00,
2013-01-03 16:25:00,31.1,6.7,29.32,SW,230,8.7,8.7,35,0.00,,SKC,0.00,VWS V14.01,2013-01-03 22:25:00,
2013-01-03 16:30:00,31.1,6.7,29.32,SW,222,5.4,8.1,35,0.00,,SKC,0.00,VWS V14.01,2013-01-03 22:30:00,
2013-01-03 16:35:00,31.1,7.9,29.32,SW,225,8.7,8.7,37,0.00,,SKC,0.00,VWS V14.01,2013-01-03 22:35:00,
2013-01-03 16:40:00,31.1,6.0,29.32,SW,222,9.6,9.6,34,0.00,,SKC,0.00,VWS V14.01,2013-01-03 22:40:00,
2013-01-03 16:45:00,31.1,6.7,29.32,SW,225,8.3,8.3,35,0.00,,SKC,0.00,VWS V14.01,2013-01-03 22:45:00,
2013-01-03 16:50:00,31.1,6.0,29.32,SSW,209,5.4,6.3,34,0.00,,SKC,0.00,VWS V14.01,2013-01-03 22:50:00,
2013-01-03 16:55:00,31.1,6.0,29.32,SSW,205,5.4,7.6,34,0.00,,SKC,0.00,VWS V14.01,2013-01-03 22:55:00,
2013-01-03 17:00:00,31.3,6.8,29.32,SW,231,8.1,8.1,35,0.00,,SKC,0.00,VWS V14.01,2013-01-03 23:00:00,
2013-01-03 17:05:00,31.3,7.4,29.32,SSW,213,8.1,8.1,36,0.00,,SKC,0.00,VWS V14.01,2013-01-03 23:05:00,
2013-01-03 17:10:00,31.3,7.4,29.32,SW,225,7.6,8.1,36,0.00,,SKC,0.00,VWS V14.01,2013-01-03 23:10:00,
2013-01-03 17:15:00,31.3,6.8,29.32,SW,232,8.3,9.2,35,0.00,,SKC,0.00,VWS V14.01,2013-01-03 23:15:00,
2013-01-03 17:20:00,31.5,7.6,29.32,WSW,250,8.1,11.9,36,0.00,,SKC,0.00,VWS V14.01,2013-01-03 23:20:00,
2013-01-03 17:25:00,31.5,8.8,29.32,SW,230,10.1,10.5,38,0.00,,SKC,0.00,VWS V14.01,2013-01-03 23:25:00,
2013-01-03 17:30:00,31.5,7.6,29.35,SSW,208,8.3,10.1,36,0.00,,SKC,0.00,VWS V14.01,2013-01-03 23:30:00,
2013-01-03 17:35:00,31.6,7.1,29.35,SW,229,8.1,9.6,35,0.00,,SKC,0.00,VWS V14.01,2013-01-03 23:35:00,
2013-01-03 17:40:00,31.5,7.0,29.35,SW,216,10.1,10.1,35,0.00,,SKC,0.00,VWS V14.01,2013-01-03 23:40:00,
2013-01-03 17:45:00,31.5,7.0,29.35,SW,230,12.3,12.3,35,0.00,,SKC,0.00,VWS V14.01,2013-01-03 23:45:00,
2013-01-03 17:50:00,31.5,7.6,29.35,SSW,213,10.1,11.9,36,0.00,,SKC,0.00,VWS V14.01,2013-01-03 23:50:00,
2013-01-03 17:55:00,31.3,6.2,29.35,SW,225,8.3,8.3,34,0.00,,SKC,0.00,VWS V14.01,2013-01-03 23:55:00,
2013-01-03 18:00:00,31.3,6.2,29.35,SW,217,10.5,11.0,34,0.00,,SKC,0.00,VWS V14.01,2013-01-04 00:00:00,
2013-01-03 18:05:00,31.1,5.4,29.35,WSW,243,10.5,11.0,33,0.00,,SKC,0.00,VWS V14.01,2013-01-04 00:05:00,
2013-01-03 18:10:00,31.3,7.4,29.35,SW,225,10.1,10.1,36,0.00,,SKC,0.00,VWS V14.01,2013-01-04 00:10:00,
2013-01-03 18:15:00,31.3,6.8,29.35,SW,217,5.8,5.8,35,0.00,,SKC,0.00,VWS V14.01,2013-01-04 00:15:00,
2013-01-03 18:20:00,31.1,6.0,29.35,SW,223,6.3,8.1,34,0.00,,SKC,0.00,VWS V14.01,2013-01-04 00:20:00,
2013-01-03 18:25:00,31.1,6.0,29.35,SW,236,10.1,10.1,34,0.00,,SKC,0.00,VWS V14.01,2013-01-04 00:25:00,
2013-01-03 18:30:00,31.1,6.7,29.35,SW,227,8.3,8.3,35,0.00,,SKC,0.00,VWS V14.01,2013-01-04 00:30:00,
2013-01-03 18:35:00,31.1,6.0,29.35,SW,217,8.1,8.1,34,0.00,,SKC,0.00,VWS V14.01,2013-01-04 00:35:00,
2013-01-03 18:40:00,30.9,5.9,29.35,SSW,212,6.7,6.7,34,0.00,,SKC,0.00,VWS V14.01,2013-01-04 00:40:00,
2013-01-03 18:45:00,30.7,5.7,29.35,SW,229,7.2,7.2,34,0.00,,SKC,0.00,VWS V14.01,2013-01-04 00:45:00,
2013-01-03 18:50:00,30.9,6.5,29.35,SSW,209,6.3,6.3,35,0.00,,SKC,0.00,VWS V14.01,2013-01-04 00:50:00,
2013-01-03 18:55:00,30.9,5.9,29.35,SSW,195,4.0,5.4,34,0.00,,SKC,0.00,VWS V14.01,2013-01-04 00:55:00,
2013-01-03 19:00:00,30.7,5.7,29.35,SW,220,7.6,8.7,34,0.00,,SKC,0.00,VWS V14.01,2013-01-04 01:00:00,
2013-01-03 19:05:00,30.7,5.7,29.35,WSW,237,4.0,9.6,34,0.00,,SKC,0.00,VWS V14.01,2013-01-04 01:05:00,
2013-01-03 19:10:00,30.7,6.3,29.35,SW,214,7.6,8.1,35,0.00,,SKC,0.00,VWS V14.01,2013-01-04 01:10:00,
2013-01-03 19:15:00,30.6,5.5,29.35,SSW,193,6.3,6.3,34,0.00,,SKC,0.00,VWS V14.01,2013-01-04 01:15:00,
2013-01-03 19:20:00,30.6,5.5,29.35,SW,229,8.3,8.3,34,0.00,,SKC,0.00,VWS V14.01,2013-01-04 01:20:00,
2013-01-03 19:25:00,30.7,6.3,29.35,SW,231,8.3,8.3,35,0.00,,SKC,0.00,VWS V14.01,2013-01-04 01:25:00,
2013-01-03 19:30:00,30.7,7.0,29.35,SW,214,3.6,4.0,36,0.00,,SKC,0.00,VWS V14.01,2013-01-04 01:30:00,
2013-01-03 19:35:00,30.4,5.4,29.35,SSW,192,4.9,4.9,34,0.00,,SKC,0.00,VWS V14.01,2013-01-04 01:35:00,
2013-01-03 19:40:00,30.2,5.2,29.35,SSW,204,5.8,5.8,34,0.00,,SKC,0.00,VWS V14.01,2013-01-04 01:40:00,
2013-01-03 19:45:00,30.0,5.1,29.35,SSW,199,3.6,3.6,34,0.00,,SKC,0.00,VWS V14.01,2013-01-04 01:45:00,
2013-01-03 19:50:00,30.0,6.3,29.35,SW,218,7.6,7.6,36,0.00,,SKC,0.00,VWS V14.01,2013-01-04 01:50:00,
2013-01-03 19:55:00,30.2,5.9,29.35,SW,222,8.1,8.1,35,0.00,,SKC,0.00,VWS V14.01,2013-01-04 01:55:00,
2013-01-03 20:00:00,30.2,6.5,29.35,SW,214,6.3,6.3,36,0.00,,SKC,0.00,VWS V14.01,2013-01-04 02:00:00,
2013-01-03 20:05:00,30.2,7.1,29.35,WSW,239,10.5,10.5,37,0.00,,SKC,0.00,VWS V14.01,2013-01-04 02:05:00,
2013-01-03 20:10:00,30.2,7.1,29.35,SW,229,10.1,10.1,37,0.00,,SKC,0.00,VWS V14.01,2013-01-04 02:10:00,
2013-01-03 20:15:00,30.4,7.2,29.35,SW,214,8.3,8.3,37,0.00,,SKC,0.00,VWS V14.01,2013-01-04 02:15:00,
2013-01-03 20:20:00,30.2,7.1,29.35,SW,231,7.6,7.6,37,0.00,,SKC,0.00,VWS V14.01,2013-01-04 02:20:00,
2013-01-03 20:25:00,30.2,7.1,29.35,SSW,213,5.4,7.6,37,0.00,,SKC,0.00,VWS V14.01,2013-01-04 02:25:00,
2013-01-03 20:30:00,30.0,6.3,29.35,South,190,6.3,6.3,36,0.00,,SKC,0.00,VWS V14.01,2013-01-04 02:30:00,
2013-01-03 20:35:00,29.8,6.8,29.35,SSW,209,5.8,5.8,37,0.00,,SKC,0.00,VWS V14.01,2013-01-04 02:35:00,
2013-01-03 20:40:00,29.8,6.8,29.35,SSW,200,7.6,8.1,37,0.00,,SKC,0.00,VWS V14.01,2013-01-04 02:40:00,
2013-01-03 20:45:00,29.8,7.9,29.35,SW,234,8.1,8.1,39,0.00,,SKC,0.00,VWS V14.01,2013-01-04 02:45:00,
2013-01-03 20:50:00,29.8,7.3,29.35,SW,232,8.1,9.6,38,0.00,,SKC,0.00,VWS V14.01,2013-01-04 02:50:00,
2013-01-03 20:55:00,29.8,7.9,29.35,SSW,208,7.6,7.6,39,0.00,,SKC,0.00,VWS V14.01,2013-01-04 02:55:00,
2013-01-03 21:00:00,30.0,9.2,29.35,SSW,201,8.3,8.3,41,0.00,,SKC,0.00,VWS V14.01,2013-01-04 03:00:00,
2013-01-03 21:05:00,29.8,7.9,29.35,SW,223,5.8,8.1,39,0.00,,SKC,0.00,VWS V14.01,2013-01-04 03:05:00,
2013-01-03 21:10:00,29.7,8.3,29.35,SSW,213,8.7,8.7,40,0.00,,SKC,0.00,VWS V14.01,2013-01-04 03:10:00,
2013-01-03 21:15:00,29.8,8.5,29.35,SSW,205,5.4,6.3,40,0.00,,SKC,0.00,VWS V14.01,2013-01-04 03:15:00,
2013-01-03 21:20:00,29.7,8.3,29.35,SW,223,7.6,8.3,40,0.00,,SKC,0.00,VWS V14.01,2013-01-04 03:20:00,
2013-01-03 21:25:00,29.7,8.9,29.35,South,185,4.0,5.8,41,0.00,,SKC,0.00,VWS V14.01,2013-01-04 03:25:00,
2013-01-03 21:30:00,29.5,8.1,29.35,SW,217,6.3,9.6,40,0.00,,SKC,0.00,VWS V14.01,2013-01-04 03:30:00,
2013-01-03 21:35:00,29.3,8.0,29.35,SSW,212,5.8,9.6,40,0.00,,SKC,0.00,VWS V14.01,2013-01-04 03:35:00,
2013-01-03 21:40:00,29.1,7.8,29.35,SSW,205,8.1,8.1,40,0.00,,SKC,0.00,VWS V14.01,2013-01-04 03:40:00,
2013-01-03 21:45:00,28.8,6.9,29.35,SSW,195,8.3,8.7,39,0.00,,SKC,0.00,VWS V14.01,2013-01-04 03:45:00,
2013-01-03 21:50:00,28.6,6.8,29.35,SSW,204,8.1,8.1,39,0.00,,SKC,0.00,VWS V14.01,2013-01-04 03:50:00,
2013-01-03 21:55:00,28.6,7.3,29.35,South,179,5.8,8.3,40,0.00,,SKC,0.00,VWS V14.01,2013-01-04 03:55:00,
2013-01-03 22:00:00,28.4,7.7,29.35,SW,226,4.9,5.8,41,0.00,,SKC,0.00,VWS V14.01,2013-01-04 04:00:00,
2013-01-03 22:05:00,28.2,7.6,29.35,South,181,3.6,9.2,41,0.00,,SKC,0.00,VWS V14.01,2013-01-04 04:05:00,
2013-01-03 22:10:00,28.0,7.4,29.35,SSE,167,5.4,11.4,41,0.00,,SKC,0.00,VWS V14.01,2013-01-04 04:10:00,
2013-01-03 22:15:00,27.9,7.2,29.35,SSE,160,7.6,8.1,41,0.00,,SKC,0.00,VWS V14.01,2013-01-04 04:15:00,
2013-01-03 22:20:00,27.7,6.5,29.35,SSE,156,5.4,6.3,40,0.00,,SKC,0.00,VWS V14.01,2013-01-04 04:20:00,
2013-01-03 22:25:00,27.5,5.8,29.35,South,181,2.7,5.4,39,0.00,,SKC,0.00,VWS V14.01,2013-01-04 04:25:00,
2013-01-03 22:30:00,27.1,5.5,29.35,South,176,3.1,3.6,39,0.00,,SKC,0.00,VWS V14.01,2013-01-04 04:30:00,
2013-01-03 22:35:00,27.0,6.4,29.35,SSW,199,6.3,11.0,41,0.00,,SKC,0.00,VWS V14.01,2013-01-04 04:35:00,
2013-01-03 22:40:00,26.8,5.7,29.35,SSW,193,5.4,5.4,40,0.00,,SKC,0.00,VWS V14.01,2013-01-04 04:40:00,
2013-01-03 22:45:00,26.4,5.9,29.35,SSW,210,5.8,8.7,41,0.00,,SKC,0.00,VWS V14.01,2013-01-04 04:45:00,
2013-01-03 22:50:00,26.4,5.9,29.35,ESE,119,3.1,4.0,41,0.00,,SKC,0.00,VWS V14.01,2013-01-04 04:50:00,
2013-01-03 22:55:00,26.2,5.2,29.35,SSE,167,5.8,5.8,40,0.00,,SKC,0.00,VWS V14.01,2013-01-04 04:55:00,
2013-01-03 23:00:00,26.1,5.1,29.35,SSE,162,5.4,5.8,40,0.00,,SKC,0.00,VWS V14.01,2013-01-04 05:00:00,
2013-01-03 23:03:00,25.9,4.9,29.35,ESE,121,3.1,5.8,40,0.00,,SKC,0.00,VWS V14.01,2013-01-04 05:03:00,
2013-01-03 23:08:00,25.5,5.1,29.35,South,187,3.1,3.6,41,0.00,,SKC,0.00,VWS V14.01,2013-01-04 05:08:00,
2013-01-03 23:13:00,25.3,4.9,29.35,South,178,5.8,6.3,41,0.00,,SKC,0.00,VWS V14.01,2013-01-04 05:13:00,
2013-01-03 23:18:00,25.2,4.8,29.35,SE,134,3.1,3.1,41,0.00,,SKC,0.00,VWS V14.01,2013-01-04 05:18:00,
2013-01-03 23:23:00,25.0,4.6,29.35,ESE,102,3.6,6.3,41,0.00,,SKC,0.00,VWS V14.01,2013-01-04 05:23:00,
2013-01-03 23:28:00,24.8,5.0,29.35,South,169,5.8,5.8,42,0.00,,SKC,0.00,VWS V14.01,2013-01-04 05:28:00,
2013-01-03 23:33:00,24.8,5.0,29.35,SW,220,6.3,6.3,42,0.00,,SKC,0.00,VWS V14.01,2013-01-04 05:33:00,
2013-01-03 23:38:00,24.6,4.8,29.35,SSE,165,3.6,4.9,42,0.00,,SKC,0.00,VWS V14.01,2013-01-04 05:38:00,
2013-01-03 23:43:00,24.4,4.7,29.35,SE,138,3.1,5.8,42,0.00,,SKC,0.00,VWS V14.01,2013-01-04 05:43:00,
2013-01-03 23:48:00,24.4,4.7,29.35,South,191,2.7,4.0,42,0.00,,SKC,0.00,VWS V14.01,2013-01-04 05:48:00,
2013-01-03 23:53:00,24.3,4.5,29.35,South,177,2.7,4.5,42,0.00,,SKC,0.00,VWS V14.01,2013-01-04 05:53:00,
2013-01-03 23:58:00,24.1,4.3,29.35,SE,144,0.0,2.7,42,0.00,,SKC,0.00,VWS V14.01,2013-01-04 05:58:00,